Location: Gradaro
(45.0833°N, 10.8833°E)
Time: 10:28:43
(UTC+00:00)

FENGYUN 1C DEB - Pass Details

Date: 26 June 2021
Orbit: 803 x 830 km, 98.8° (Epoch: 28 July)

Event Time Altitude Azimuth Distance (km) Brightness Sun altitude
Exits shadow 20:55:20 20° 133° (SE) 1,792 ? -14.1°
Maximum altitude 20:58:42 47° 69° (ENE) 1,072 ? -14.4°
Drops below altitude 10° 21:03:48 10° 357° (N) 2,419 ? -14.9°
Sets 21:06:14 0° 351° (N) 3,360 ? -15.2°
